This demonstration page uses our WeatherBlox Daily Observations layout. Learn more.

Left ArrowRight Arrow

39.51506, -84.39828

Hourly Observations for February 22, 2019

Temp ( °F °C ) Dew Point ( °F °C ) Humidity (%) Winds ( mph kmh ) Pressure ( in mb ) Visibility ( mi km ) Precip ( " mm )
12:15 am 00:15 Clear 36 2.1 31 -0.6 83 83 Calm 30.34 1027 10 16 0.00 0.00
12:35 am 00:35 Clear 35 1.6 30 -1.1 82 82 NNE 3 6 30.34 1027 10 16 0.00 0.00
12:55 am 00:55 Clear 34 1.3 31 -0.7 87 87 N 3 6 30.34 1027 10 16 0.00 0.00
1:15 am 01:15 Clear 34 1.1 31 -0.6 89 89 NNE 3 6 30.33 1027 10 16 0.00 0.00
1:35 am 01:35 Clear 34 0.9 31 -0.8 89 89 NNW 3 6 30.35 1028 10 16 0.00 0.00
1:55 am 01:55 Clear 35 1.5 29 -1.4 81 81 NNW 6 9 30.36 1028 10 16 0.00 0.00
2:15 am 02:15 Clear 35 1.4 30 -1.3 82 82 NNE 3 6 30.34 1027 10 16 0.00 0.00
2:35 am 02:35 Clear 35 1.4 29 -1.5 81 81 NNE 5 7 30.34 1027 10 16 0.00 0.00
2:55 am 02:55 Clear 34 1.3 29 -1.5 82 82 NNE 5 7 30.34 1027 10 16 0.00 0.00
3:15 am 03:15 Clear 33 0.8 29 -1.6 84 84 N 5 7 30.36 1028 7 11 0.00 0.00
3:35 am 03:35 Clear 33 0.7 29 -1.6 85 85 N 3 6 30.35 1028 7 11 0.00 0.00
3:55 am 03:55 Clear 33 0.4 29 -1.7 86 86 NNE 3 6 30.35 1028 7 11 0.00 0.00
4:15 am 04:15 Clear 33 0.7 29 -1.8 84 84 N 6 9 30.36 1028 7 11 0.00 0.00
4:35 am 04:35 Clear 33 0.7 29 -1.9 83 83 NNE 6 9 30.36 1028 7 11 0.00 0.00
4:55 am 04:55 Clear 33 0.6 29 -1.9 84 84 N 7 11 30.36 1028 7 11 0.00 0.00
5:15 am 05:15 Clear 33 0.5 28 -2 84 84 N 7 11 30.36 1028 7 11 0.00 0.00
5:35 am 05:35 Clear 32 0.1 28 -2.3 84 84 NNE 7 11 30.38 1029 7 11 0.00 0.00
5:55 am 05:55 Clear 32 0 28 -2.5 83 83 N 6 9 30.41 1030 7 11 0.00 0.00
6:15 am 06:15 Clear 32 -0.2 27 -2.6 84 84 N 5 7 30.42 1030 7 11 0.00 0.00
6:35 am 06:35 Clear 32 -0.1 28 -2.5 84 84 NNE 6 9 30.42 1030 7 11 0.00 0.00
6:55 am 06:55 Clear 32 -0.2 28 -2.4 85 85 NNE 7 11 30.42 1030 7 11 0.00 0.00
7:15 am 07:15 Clear with Mist and Fog 32 -0.2 28 -2.5 85 85 NNE 5 7 30.43 1030 7 11 0.00 0.00
7:35 am 07:35 Hazy 32 -0.2 28 -2.5 85 85 NNE 5 7 30.44 1031 5 8 0.00 0.00
7:55 am 07:55 Sunny with Mist and Fog 32 -0.1 28 -2.4 85 85 NE 6 9 30.44 1031 5 8 0.00 0.00
8:15 am 08:15 Sunny with Mist and Fog 32 0.2 28 -2.4 83 83 NNE 7 11 30.44 1031 5 8 0.00 0.00
8:35 am 08:35 Hazy 33 0.4 28 -2.3 82 82 NE 5 7 30.45 1031 5 8 0.00 0.00
8:55 am 08:55 Hazy 33 0.6 28 -2.2 82 82 NE 5 7 30.45 1031 5 8 0.00 0.00
9:15 am 09:15 Hazy 34 1 28 -2.1 80 80 ENE 5 7 30.46 1032 5 8 0.00 0.00
9:35 am 09:35 Hazy 35 1.4 27 -2.6 75 75 ENE 8 13 30.47 1032 7 11 0.00 0.00
9:55 am 09:55 Sunny 35 1.6 27 -2.9 72 72 ENE 8 13 30.46 1032 7 11 0.00 0.00
10:15 am 10:15 Sunny 35 1.8 27 -3 71 71 ENE 6 9 30.47 1032 7 11 0.00 0.00
10:35 am 10:35 Sunny 36 2.4 27 -2.9 68 68 ENE 7 11 30.46 1031 7 11 0.00 0.00
10:55 am 10:55 Sunny 37 2.9 26 -3.3 64 64 ENE 9 15 30.46 1031 10 16 0.00 0.00
11:15 am 11:15 Sunny 38 3.4 26 -3.2 62 62 ENE 9 15 30.46 1031 10 16 0.00 0.00
11:35 am 11:35 Sunny 39 3.7 27 -3 62 62 ENE 8 13 30.47 1032 10 16 0.00 0.00
11:55 am 11:55 Sunny 39 3.7 27 -3 62 62 NE 7 11 30.46 1031 10 16 0.00 0.00
12:15 pm 12:15 Sunny 39 4 27 -2.7 62 62 E 8 13 30.45 1031 10 16 0.00 0.00
12:35 pm 12:35 Sunny 40 4.3 27 -2.9 60 60 E 9 15 30.44 1031 7 11 0.00 0.00
12:55 pm 12:55 Sunny 40 4.5 27 -2.7 60 60 ENE 9 15 30.42 1030 7 11 0.00 0.00
1:15 pm 13:15 Sunny 40 4.7 27 -2.6 60 60 NE 8 13 30.41 1030 10 16 0.00 0.00
1:35 pm 13:35 Sunny 41 5.2 27 -2.7 57 57 NE 7 11 30.41 1030 10 16 0.00 0.00
1:55 pm 13:55 Sunny 42 5.5 27 -2.7 56 56 ENE 10 17 30.39 1029 10 16 0.00 0.00
2:15 pm 14:15 Sunny 42 5.4 26 -3.1 55 55 ENE 10 17 30.38 1029 10 16 0.00 0.00
2:35 pm 14:35 Sunny 42 5.4 26 -3.3 54 54 NE 9 15 30.37 1028 10 16 0.00 0.00
2:55 pm 14:55 Sunny 42 5.6 27 -2.8 55 55 ENE 9 15 30.37 1028 10 16 0.00 0.00
3:15 pm 15:15 Sunny 43 5.9 27 -2.6 55 55 NE 8 13 30.37 1028 10 16 0.00 0.00
3:35 pm 15:35 Sunny 42 5.7 27 -2.8 55 55 ENE 9 15 30.38 1029 10 16 0.00 0.00
3:55 pm 15:55 Sunny 42 5.8 28 -2.4 56 56 ENE 8 13 30.37 1028 10 16 0.00 0.00
4:15 pm 16:15 Sunny 42 5.4 28 -2.5 57 57 ENE 8 13 30.38 1029 10 16 0.00 0.00
4:35 pm 16:35 Sunny 42 5.3 28 -2 60 60 ENE 7 11 30.37 1028 10 16 0.00 0.00
4:55 pm 16:55 Sunny 41 5.2 29 -1.9 61 61 ENE 7 11 30.37 1028 10 16 0.00 0.00
5:15 pm 17:15 Sunny 41 5 29 -1.6 63 63 ENE 5 7 30.38 1029 10 16 0.00 0.00
5:35 pm 17:35 Sunny 40 4.6 29 -1.5 65 65 ENE 5 7 30.38 1029 10 16 0.00 0.00
5:55 pm 17:55 Sunny 40 4.5 29 -1.9 64 64 ENE 8 13 30.38 1029 10 16 0.00 0.00
6:15 pm 18:15 Sunny 39 3.9 28 -2 66 66 NE 3 6 30.39 1029 10 16 0.00 0.00
6:35 pm 18:35 Clear 39 3.9 29 -1.9 66 66 NE 7 11 30.39 1029 10 16 0.00 0.00
6:55 pm 18:55 Clear 39 3.8 29 -1.9 67 67 NE 6 9 30.39 1029 10 16 0.00 0.00
7:15 pm 19:15 Clear 38 3.1 29 -1.8 71 71 NNE 3 6 30.40 1029 10 16 0.00 0.00
7:35 pm 19:35 Clear 38 3.1 29 -1.8 71 71 NNE 5 7 30.40 1029 10 16 0.00 0.00
7:55 pm 19:55 Clear 37 2.8 29 -1.8 72 72 NNE 6 9 30.39 1029 10 16 0.00 0.00
8:15 pm 20:15 Mostly Cloudy 37 3 29 -1.4 73 73 NE 7 11 30.38 1029 10 16 0.00 0.00
8:35 pm 20:35 Cloudy 38 3.3 29 -1.6 71 71 NNE 6 9 30.38 1029 10 16 0.00 0.00
8:55 pm 20:55 Cloudy 38 3.2 29 -1.5 72 72 NE 8 13 30.36 1028 10 16 0.00 0.00
9:15 pm 21:15 Mostly Cloudy 38 3.1 29 -1.6 72 72 NNE 8 13 30.36 1028 10 16 0.00 0.00
9:35 pm 21:35 Cloudy 37 3 29 -1.6 72 72 NNE 6 9 30.36 1028 7 11 0.00 0.00
9:55 pm 21:55 Cloudy 37 2.9 29 -1.5 73 73 NNE 7 11 30.36 1028 7 11 0.00 0.00
10:15 pm 22:15 Cloudy 37 3 29 -1.6 72 72 NNE 7 11 30.36 1028 7 11 0.00 0.00
10:35 pm 22:35 Cloudy 37 3 29 -1.8 71 71 NNE 7 11 30.35 1028 7 11 0.00 0.00
10:55 pm 22:55 Cloudy 37 3 29 -1.7 72 72 NNE 6 9 30.35 1028 7 11 0.00 0.00
11:15 pm 23:15 Cloudy 37 3 29 -1.7 72 72 NNE 7 11 30.34 1027 7 11 0.00 0.00
11:35 pm 23:35 Cloudy 37 3 29 -1.8 71 71 NE 8 13 30.32 1027 10 16 0.00 0.00
11:55 pm 23:55 Cloudy 37 2.9 29 -1.9 71 71 NE 8 13 30.31 1026 7 11 0.00 0.00

Powered by AerisWeather